Location: Buckhorn Peak
(37.6641°N, 120.1241°W)
Time: 18:24:38
(UTC+00:00)

Cosmos 2221 Rocket - Pass Details

Date: 05 August 2024
Orbit: 617 x 644 km, 82.5° (Epoch: 12 September)

Event Time Altitude Azimuth Distance (km) Brightness Sun altitude
Rises 12:30:14 0° 355° (N) 2,962 7.4 -7.6°
Reaches altitude 10° 12:32:31 10° 358° (N) 2,049 6.6 -7.2°
Maximum altitude 12:37:03 67° 82° (E) 699 4.1 -6.5°
Drops below altitude 10° 12:41:32 10° 165° (SSE) 2,032 6.1 -5.7°
Sets 12:43:47 0° 168° (SSE) 2,935 6.9 -5.3°
